When you browse on this site, cookies collect data to enhance your experience and personalize the content and advertising you see.
Visit our Privacy Policy to learn more. By continuing to use the site, you agree to this use of cookies and data.
  • In Romania
  • List of Countries
  • For 7 days
  • Water Temperature
  • Satellite Maps
  • Weather Map
  • Weather Widgets
  • user-avatar
    Login

    Hourly Weather Kuzovkovo

    Today, 22 March, Friday

    Time Temperature Precipitation Wind Pressure Humidity
    00:00 -1°C° 0.1 mm 3 mps 740 mmHg 92%
    01:00 0°C° 0.1 mm 3 mps 740 mmHg 91%
    02:00 0°C° 0 mm 3 mps 738 mmHg 90%
    03:00 +1°C° 1 mm 3 mps 737 mmHg 90%
    04:00 0°C° 1 mm 4 mps 736 mmHg 90%
    05:00 0°C° 1 mm 4 mps 735 mmHg 90%
    06:00 0°C° 0.7 mm 5 mps 735 mmHg 89%
    07:00 +1°C° 0.7 mm 6 mps 735 mmHg 87%
    08:00 +1°C° 0 mm 6 mps 734 mmHg 85%
    09:00 0°C° 0.1 mm 7 mps 735 mmHg 82%
    10:00 -1°C° 0.1 mm 7 mps 735 mmHg 78%
    11:00 -1°C° 0.1 mm 7 mps 736 mmHg 75%
    12:00 -1°C° 0.1 mm 7 mps 737 mmHg 74%
    13:00 -2°C° 0.1 mm 7 mps 737 mmHg 74%
    14:00 -1°C° 0 mm 5 mps 738 mmHg 72%
    15:00 -2°C° 0.1 mm 5 mps 739 mmHg 73%
    16:00 -2°C° 0.1 mm 5 mps 739 mmHg 75%
    17:00 -2°C° 0.1 mm 5 mps 740 mmHg 77%
    18:00 -2°C° 0.1 mm 5 mps 740 mmHg 79%
    19:00 -2°C° 0.1 mm 5 mps 740 mmHg 82%
    20:00 -2°C° 0.1 mm 5 mps 740 mmHg 85%
    21:00 -2°C° 0.1 mm 5 mps 741 mmHg 85%
    22:00 -2°C° 0.1 mm 5 mps 741 mmHg 85%
    23:00 -1°C° 0.1 mm 5 mps 742 mmHg 85%

    Tomorrow, 23 March, Saturday

    Time Temperature Precipitation Wind Pressure Humidity
    00:00 -1°C° 0.1 mm 5 mps 742 mmHg 86%
    01:00 -1°C° 0.1 mm 5 mps 743 mmHg 86%
    02:00 -1°C° 0.1 mm 5 mps 744 mmHg 87%
    03:00 -1°C° 0 mm 5 mps 744 mmHg 88%
    04:00 -1°C° 0 mm 4 mps 745 mmHg 90%
    05:00 -1°C° 0 mm 4 mps 746 mmHg 91%
    06:00 0°C° 0 mm 3 mps 746 mmHg 91%
    07:00 0°C° 0 mm 3 mps 747 mmHg 92%
    08:00 +1°C° 0 mm 2 mps 747 mmHg 92%
    09:00 +2°C° 0 mm 2 mps 747 mmHg 88%
    10:00 +3°C° 0 mm 1 mps 748 mmHg 83%
    11:00 +4°C° 0 mm 1 mps 748 mmHg 79%
    12:00 +4°C° 0 mm 1 mps 747 mmHg 78%
    13:00 +5°C° 0 mm 1 mps 747 mmHg 76%
    14:00 +5°C° 0 mm 1 mps 747 mmHg 75%
    15:00 +5°C° 0 mm 1 mps 747 mmHg 78%
    16:00 +4°C° 0 mm 1 mps 746 mmHg 81%
    17:00 +3°C° 0 mm 2 mps 746 mmHg 84%
    18:00 +2°C° 0 mm 2 mps 745 mmHg 86%
    19:00 +1°C° 0 mm 2 mps 745 mmHg 88%
    20:00 -1°C° 0 mm 3 mps 744 mmHg 90%
    21:00 -1°C° 0 mm 3 mps 744 mmHg 89%
    22:00 -1°C° 0 mm 3 mps 743 mmHg 87%
    23:00 -1°C° 0 mm 4 mps 742 mmHg 86%

    Day after tomorrow, 24 March, Sunday

    Time Temperature Precipitation Wind Pressure Humidity
    00:00 -1°C° 0.4 mm 4 mps 742 mmHg 86%
    01:00 -1°C° 0.4 mm 4 mps 741 mmHg 87%
    02:00 -1°C° 0.4 mm 4 mps 740 mmHg 87%
    03:00 -1°C° 0.5 mm 4 mps 740 mmHg 88%
    04:00 -1°C° 0.5 mm 4 mps 739 mmHg 89%
    05:00 -1°C° 0.5 mm 4 mps 738 mmHg 90%
    06:00 0°C° 0 mm 3 mps 738 mmHg 90%
    07:00 +1°C° 0 mm 3 mps 738 mmHg 91%
    08:00 +1°C° 0 mm 3 mps 738 mmHg 91%
    09:00 +1°C° 0.1 mm 4 mps 738 mmHg 88%
    10:00 +1°C° 0.1 mm 4 mps 738 mmHg 84%
    11:00 +2°C° 0.1 mm 5 mps 738 mmHg 81%
    12:00 +2°C° 0.1 mm 5 mps 738 mmHg 75%
    13:00 +2°C° 0.1 mm 5 mps 737 mmHg 70%
    14:00 +2°C° 0.1 mm 5 mps 737 mmHg 64%
    15:00 +1°C° 0.1 mm 4 mps 737 mmHg 67%
    16:00 +1°C° 0.1 mm 4 mps 737 mmHg 69%
    17:00 +1°C° 0.1 mm 3 mps 737 mmHg 72%
    18:00 0°C° 0 mm 3 mps 738 mmHg 75%
    19:00 -1°C° 0 mm 2 mps 738 mmHg 79%
    20:00 -3°C° 0 mm 2 mps 738 mmHg 82%
    21:00 -3°C° 0 mm 2 mps 738 mmHg 81%
    22:00 -4°C° 0 mm 3 mps 737 mmHg 80%
    23:00 -4°C° 0 mm 3 mps 737 mmHg 80%

    25 March, Monday

    Time Temperature Precipitation Wind Pressure Humidity
    00:00 -4°C° 0 mm 3 mps 737 mmHg 79%
    01:00 -2°C° 0 mm 3 mps 737 mmHg 79%
    02:00 -2°C° 0 mm 3 mps 736 mmHg 78%
    03:00 -4°C° 0 mm 3 mps 736 mmHg 80%
    04:00 -4°C° 0 mm 3 mps 736 mmHg 83%
    05:00 -4°C° 0 mm 3 mps 736 mmHg 85%
    06:00 -4°C° 0 mm 3 mps 736 mmHg 83%
    07:00 -2°C° 0 mm 3 mps 736 mmHg 81%
    08:00 -1°C° 0 mm 3 mps 736 mmHg 79%
    09:00 0°C° 0 mm 3 mps 736 mmHg 76%
    10:00 +1°C° 0 mm 3 mps 736 mmHg 73%
    11:00 +3°C° 0 mm 3 mps 736 mmHg 70%
    12:00 +3°C° 0.2 mm 3 mps 736 mmHg 69%
    13:00 +3°C° 0.2 mm 3 mps 736 mmHg 67%
    14:00 +4°C° 0.2 mm 3 mps 736 mmHg 66%
    15:00 +3°C° 0.2 mm 3 mps 736 mmHg 69%
    16:00 +3°C° 0.2 mm 2 mps 735 mmHg 72%
    17:00 +3°C° 0.2 mm 2 mps 735 mmHg 76%
    18:00 +2°C° 0 mm 2 mps 735 mmHg 77%
    19:00 +1°C° 0 mm 2 mps 736 mmHg 78%
    20:00 -1°C° 0 mm 2 mps 736 mmHg 80%
    21:00 -2°C° 0 mm 2 mps 736 mmHg 81%
    22:00 -2°C° 0 mm 2 mps 736 mmHg 82%
    23:00 -2°C° 0 mm 2 mps 736 mmHg 83%

    26 March, Tuesday

    Time Temperature Precipitation Wind Pressure Humidity
    00:00 -2°C° 0 mm 2 mps 736 mmHg 83%
    01:00 -2°C° 0 mm 2 mps 736 mmHg 83%
    02:00 -2°C° 0 mm 2 mps 736 mmHg 84%
    03:00 -2°C° 0 mm 2 mps 736 mmHg 86%
    04:00 -2°C° 0 mm 2 mps 736 mmHg 88%
    05:00 -3°C° 0 mm 2 mps 736 mmHg 91%
    06:00 -2°C° 0.1 mm 2 mps 736 mmHg 89%
    07:00 -1°C° 0.1 mm 2 mps 736 mmHg 88%
    08:00 -1°C° 0.1 mm 2 mps 736 mmHg 87%
    09:00 -1°C° 0.5 mm 2 mps 736 mmHg 87%
    10:00 +1°C° 0.5 mm 2 mps 736 mmHg 88%
    11:00 +1°C° 0.5 mm 2 mps 736 mmHg 88%
    12:00 -1°C° 0.8 mm 3 mps 736 mmHg 87%
    13:00 -1°C° 0.8 mm 3 mps 736 mmHg 87%
    14:00 -3°C° 0.8 mm 4 mps 735 mmHg 86%
    15:00 -2°C° 0.1 mm 3 mps 735 mmHg 84%
    16:00 -1°C° 0.1 mm 3 mps 735 mmHg 82%
    17:00 -1°C° 0.1 mm 2 mps 735 mmHg 81%
    18:00 -2°C° 0 mm 2 mps 736 mmHg 84%
    19:00 -1°C° 0 mm 1 mps 736 mmHg 88%
    20:00 -2°C° 0 mm 1 mps 736 mmHg 91%
    21:00 -2°C° 0 mm 1 mps 736 mmHg 92%
    22:00 -3°C° 0 mm 1 mps 736 mmHg 93%
    23:00 -3°C° 0 mm 1 mps 736 mmHg 93%

    27 March, Wednesday

    Time Temperature Precipitation Wind Pressure Humidity
    00:00 -5°C° 0 mm 2 mps 737 mmHg 93%
    01:00 -5°C° 0 mm 2 mps 737 mmHg 92%
    02:00 -5°C° 0 mm 2 mps 738 mmHg 92%
    03:00 -6°C° 0 mm 2 mps 738 mmHg 92%
    04:00 -7°C° 0 mm 3 mps 739 mmHg 91%
    05:00 -7°C° 0 mm 3 mps 739 mmHg 91%
    06:00 -6°C° 0 mm 3 mps 740 mmHg 86%
    07:00 -5°C° 0 mm 3 mps 740 mmHg 81%
    08:00 -4°C° 0 mm 4 mps 741 mmHg 76%
    09:00 -3°C° 0 mm 4 mps 741 mmHg 71%
    10:00 -2°C° 0 mm 4 mps 742 mmHg 66%
    11:00 -1°C° 0 mm 5 mps 742 mmHg 62%
    12:00 -1°C° 0.1 mm 5 mps 742 mmHg 60%
    13:00 -1°C° 0.1 mm 5 mps 743 mmHg 58%
    14:00 -1°C° 0.1 mm 5 mps 743 mmHg 57%
    15:00 -1°C° 0.2 mm 4 mps 743 mmHg 61%
    16:00 -2°C° 0.2 mm 4 mps 743 mmHg 65%
    17:00 -2°C° 0.2 mm 4 mps 744 mmHg 69%
    18:00 -2°C° 0 mm 3 mps 744 mmHg 71%
    19:00 -5°C° 0 mm 3 mps 745 mmHg 73%
    20:00 -6°C° 0 mm 3 mps 746 mmHg 75%
    21:00 -6°C° 0 mm 3 mps 746 mmHg 77%
    22:00 -6°C° 0 mm 3 mps 747 mmHg 79%
    23:00 -7°C° 0 mm 3 mps 747 mmHg 80%
    Show more